Weather in Tolka

Russia / Yamalo-Nenets Autonomous Okrug     64°00′07″N   82°03′04″E
temp.,
°C
wind,
m/s
gust,
m/s
humid.,
%
clouds,
%
prec.,
mm/h
press.,
hPa
HPBL,
m
27 february, sat
sat2723:00−31w229893 0.1 102469
02:00−30w2498100 0.1 1024176
05:00−30wsw2398100 0.2 102590
08:00−29sw2298100 0.1 1023128
11:00−26wsw2293100 0.1 1024303
14:00−24wsw1290100 0.1 1024423
17:00−27se1198100 0.1 102519
20:00−29ese1110098 0.1 102519
28 february, sun
sun2823:00−31ese1210098 0.1 102619
02:00−32e1110098 0.0 102619
05:00−34ese1210091 0.0 102819
08:00−33ese129831 0.0 102819
11:00−28se239317 0.0 1028225
14:00−26se239264 0.0 1029294
17:00−30ese229642 0.0 102919
20:00−31se23970 0.0 102921
1 march, mon
mon123:00−32se22992 0.0 102919
02:00−32se239920 0.0 102822
05:00−33se239911 0.0 102825
08:00−32se249818 0.0 102876
11:00−27se23959 0.0 1027213
14:00−24se249348 0.0 1026274
17:00−27se339661 0.0 102536
20:00−28se239791 0.0 102554
2 march, tue
tue223:00−28sse239796 0.0 102461
02:00−29sse2397100 0.0 102443
05:00−29sse3395100 0.0 102456
08:00−28sse3694100 0.0 1024143
11:00−24sse359280 0.0 1025246
14:00−21sse369071 0.0 1024310
17:00−23se479382 0.0 1024164
20:00−24sse489196 0.0 1024198
3 march, wed
wed323:00−26sse479180 0.0 1023169
02:00−27se479383 0.0 1023129
05:00−28sse479259 0.0 1024124
08:00−27sse499092 0.0 1023223
11:00−23sse589095 0.0 1023319
14:00−19sse5108693 0.0 1023443
17:00−20sse5128696 0.0 1022326
20:00−21sse5128693 0.0 1022308